Showing default

GRUS-1D, 47936

Orbit data source: Space-Track

GRUS-1D, 47936 is a Japanese payload satellite in SSO that was launched on Mon, 22 Mar 2021 UTC via a SOYUZ-2-1A launch vehicle from the Tyuratam Missile And Space Complex (TTMTR). Payload-class satellites include a variety of spacecraft equipped with specific instruments for various scientific and technological missions. These include communications satellites like Starlink; space stations such as the ISS; scientific satellites like the Hubble; Earth observation satellites from companies like Planet Labs, Umbra, and HawkEye 360; GPS; miniature CubeSats for education and research; and military/defense satellites.

Loading next visibility...
Identifier
47936, 2021-022E
Orbit
SSO
Country
Flag of JPJP / JPN
Related business
Manufacturer
AXELSPACE
Mission
Operational Commercial Imaging
Bus & Motor
GRUS, Unknown motor
Mass
80 kg wet, 80 kg dry
Launch date (UTC)
2021-03-22 (5 years ago)
Launch vehicle
SOYUZ-2-1A
Launch site
Tyuratam Missile And Space Complex (TTMTR)
Object type
Payload
Rocket body
Debris
Shape & HBR
Box, 0.3 m
Radar Cross Section
0.375 m², Medium (>0.1 m² and < 1m²)

Expand to show TLE details & history
Last TLE update: 18 hours ago

TLE from 18 hours ago
0 GRUS-1D
1 47936U 21022E   25348.92925116  .00001660  00000-0  14321-3 0  9990
2 47936  97.5623 233.1246 0012615 207.8815 152.1734 14.98556349258305
Epoch: 2025-12-14T22:18Z
TLE epoch observation values (Epoch: 2025-12-14T22:18:07.300Z)
Latitude
0.00005°
Longitude
174.75906°
Altitude
582.17 km
Speed
7.565 km/s
True Right ascension
15h 32m 29s
True Declination
0° 00' 00"
Sunlit
Object was in daylight at epoch
Visualization orbit readout
Latitude
Unknown
Longitude
Unknown
Altitude
Unknown
Speed
Unknown
Apparent Right ascension
Unknown
Apparent Declination
Unknown
Sunlit
N/A
Visualization observer readout
Local Sidereal Time
15:09:26
Azimuth
Unknown
Elevation
Unknown
Doppler factor
Unknown
Orbital elements
Apogee altitude
577.12 km
Perigee altitude
559.594 km
Semi-major axis
6,946.494 km
Eccentricity
0.00126
Inclination
97.5623°
RAAN
233.1246°
Arg. of periapsis
207.8815°
True anomaly
152.24078°
Mean anomaly
152.1734°
Eccentric anomaly
152.2071°
Mean motion
3.74882 °/min
Orbital period
96.03 mins
BSTAR
0.00014321
Loading maneuver chart data...
Computing Atmospheric mass density...
Loading historical data...
Loading historical data...
Loading historical data...
Loading historical data...
Loading historical data...
Loading historical data...
Loading historical data...

Documentation

Showing up to 5 results
|